CAPE
0 0 0 0 0 0 0 0 0 12 13 9 0 304 666 662 671 829 1160 1390 1352 1252 1152 1092 932 1168 1054 753 609 466 542 424 429 190 2 0 0 0 0 0 0 0 0 0 0 0 0 77 84 62 133 241 271 395 383 393 566 673 716 778 818 745 897 1138 1446 1428 1053 1066 1297 896 876 962 1072 1050 1288 1432 1530 1728 1750 2042 2002 2178 2316 2495 2803 3055
0 0 0 0 0 0 0 0 0 6 28 7 208 619 741 677 611 752 1250 1368 1370 907 1146 1021 924 1125 914 629 545 694 740 451 700 304 3 0 0 0 0 0 0 0 0 0 0 0 0 40 18 103 180 327 276 388 361 270 395 580 662 742 757 877 1146 1380 1378 1153 1096 1161 1267 1014 608 768 812 918 1153 1263 1576 1698 1779 1875 1982 2220 2242 2350 2502 3378
0 0 0 0 0 0 0 0 0 16 26 6 24 726 702 1073 1618 1589 1444 1330 1376 981 1070 1003 742 897 954 666 683 996 787 933 629 800 709 648 0 0 3 0 0 0 0 0 0 0 0 11 42 104 170 237 350 371 315 342 382 478 660 710 878 1026 1200 1445 1325 1164 1149 1174 1272 1094 1092 605 402 685 800 1056 1553 1612 1698 1752 2033 2090 2194 2357 2360 3165
0 0 0 0 0 0 0 0 2 11 11 3 0 766 576 1179 931 1042 1534 1463 1268 861 863 932 738 685 1049 773 656 609 1070 1187 1075 1225 1363 1141 344 16 5 0 0 0 0 0 0 0 0 18 46 49 161 288 405 497 477 447 434 545 690 832 953 1033 1224 1448 1489 1406 1220 1319 1114 1190 1098 476 311 404 606 972 1344 1491 1527 1747 2074 1959 2110 2338 2222 2811
0 0 0 0 0 0 0 0 16 17 23 11 0 512 643 1271 865 1132 1497 1440 1158 743 774 868 707 484 734 697 542 553 721 957 960 808 753 897 663 696 887 0 0 0 0 0 0 0 0 15 41 94 230 379 462 524 565 497 490 672 757 899 942 1010 1190 1344 1739 1555 1471 2152 1328 1322 1961 1888 1426 1107 690 1059 1272 1362 1584 1762 2085 1926 2048 2266 2152 2490
0 0 0 0 0 0 0 0 9 34 17 24 4 369 880 1068 823 1435 1515 1330 995 820 656 682 426 468 515 658 654 539 572 735 866 855 742 604 705 511 871 24 0 0 0 0 0 0 0 10 38 130 286 429 497 568 595 513 538 779 805 902 940 964 1060 1262 1371 1559 1964 1540 1179 1331 1443 1180 1137 812 714 998 1171 1292 1511 1700 2127 1955 2048 2219 2128 2256
0 0 0 0 0 0 0 0 4 29 11 33 4 257 854 1033 1100 1564 1417 1180 775 680 672 494 230 217 354 495 584 507 640 730 799 742 863 974 860 532 577 412 0 0 0 0 0 0 0 0 61 160 374 512 587 630 636 537 705 880 836 869 916 916 995 1138 1399 1699 1754 1310 1245 1267 1289 1107 1122 913 694 847 1074 1260 1376 1436 2174 1984 1982 2187 2113 2139
0 0 0 0 0 0 0 0 0 17 24 45 87 766 992 1078 1478 1536 1251 758 684 498 732 642 289 475 390 431 559 622 756 733 684 737 842 914 901 880 641 958 264 0 0 0 0 0 0 0 78 234 376 553 665 774 783 717 861 1008 913 813 818 852 994 1035 1867 1797 1582 1444 1436 1323 1450 1218 1168 1052 1057 882 955 1147 1248 1208 2044 1974 1856 1986 2162 2063
0 0 0 0 0 0 0 0 0 8 25 36 831 1000 1065 1149 1344 1475 1132 604 593 736 700 695 383 221 313 444 550 762 774 806 557 536 709 802 937 874 782 938 961 0 0 0 0 0 0 0 47 178 356 562 716 882 951 935 1053 1146 976 832 857 938 950 1241 2211 1954 1621 1741 1679 1590 1565 1430 1446 1272 1365 1537 1572 1160 1431 1256 1913 1831 1772 1633 1998 1997
0 0 0 0 0 0 0 0 0 0 68 53 685 711 978 997 1075 1147 892 447 601 332 595 627 613 249 271 743 821 926 763 726 568 457 581 816 809 816 794 813 1076 350 0 0 0 0 0 0 13 95 258 491 712 884 1034 1065 1218 1286 1111 920 1128 1157 1027 1805 2279 2080 1735 1908 2063 1838 1587 1423 1727 2122 1888 2083 1806 1435 1533 1277 1888 1945 1805 1487 1844 1922
0 0 0 0 0 0 0 0 0 0 83 26 55 315 376 804 1129 853 612 519 525 243 233 502 673 382 236 623 853 777 746 614 500 494 635 848 887 677 718 740 1002 717 0 0 0 0 0 0 0 64 152 393 640 804 983 1087 1272 1402 1298 1081 1332 1378 1230 2053 2248 2039 1853 1907 1970 1992 1676 1692 1941 2040 1908 1697 1558 1774 1593 1279 1737 1867 1541 1484 1969 1814
0 0 0 0 0 0 0 0 0 0 50 56 33 36 31 353 1004 877 598 405 292 175 32 363 668 423 197 341 667 845 880 647 398 433 610 847 962 800 668 673 899 919 6 0 0 1 0 0 0 25 124 218 564 711 945 1124 1244 1450 1465 1287 1457 1555 1503 2024 2139 2117 1994 1972 1948 2043 1869 1880 1960 1964 1783 1569 1404 1866 1723 1328 1538 1570 1537 1606 2278 1827
0 0 0 0 0 0 0 0 0 0 30 73 61 50 51 41 132 227 287 325 166 0 0 143 576 389 283 279 491 690 750 725 608 433 565 788 938 863 632 629 799 1073 249 2 0 2 1 0 0 3 76 117 198 656 1044 1234 1331 1480 1578 1495 1528 1789 1679 1984 2042 2094 2122 2043 1950 1957 1884 1859 2004 1892 1685 1468 1281 1595 1883 1669 1639 1638 1496 1796 2336 1725
0 0 0 0 0 0 0 0 0 0 23 72 72 80 70 42 20 4 0 13 0 0 13 550 491 446 388 252 483 542 570 587 699 673 635 781 914 868 661 666 750 1043 718 10 13 11 10 0 0 0 15 52 113 596 1127 1349 1530 1595 1693 1678 1590 2011 1780 1918 2046 1987 2057 2116 1945 1878 1791 1687 2186 2008 1647 1445 1300 1449 1940 2174 2009 2077 1648 1934 2360 2056
0 0 0 0 2 0 0 21 6 0 16 70 72 31 41 41 52 32 19 2 0 0 0 552 324 368 140 299 726 672 501 483 641 734 760 844 951 893 773 797 858 881 1059 265 27 33 34 7 8 4 2 10 77 535 1187 1466 1642 1786 1832 1845 1854 2129 1920 1920 2090 1926 1947 2036 1995 1876 1608 1563 2014 2016 1694 1651 1413 1611 1725 2369 2258 2336 2150 1991 2233 2465
0 0 0 0 2 0 0 24 22 11 0 16 58 39 31 42 65 65 42 22 0 0 0 430 212 83 407 822 1118 841 623 600 739 712 712 894 1017 1029 998 896 852 785 997 914 208 65 60 31 47 73 1 24 72 680 1292 1545 1762 1920 1976 1982 2075 2262 2031 2013 2160 1990 1916 1938 1894 1748 1697 1282 1701 1973 1743 2013 2230 1882 1766 2346 2360 2295 2500 2103 2200 2266
0 2 0 0 0 2 0 0 7 12 28 47 66 45 38 48 49 70 46 25 1 0 0 503 698 757 795 874 1100 987 783 891 845 704 638 883 1063 1090 1009 937 880 822 1135 1249 803 99 103 86 70 73 121 154 113 794 1342 1574 1810 1960 2099 2086 2278 2474 2127 2120 2209 2114 1922 1914 1812 1678 1713 1501 1586 1691 1666 1916 2127 1911 1976 2302 2323 2350 2368 2261 2099 2095
0 15 6 8 0 0 3 0 2 0 19 21 33 56 64 39 58 65 38 14 7 0 0 597 745 866 655 400 850 996 1093 993 950 810 671 919 1091 1086 968 930 928 991 1349 1357 1411 596 184 117 95 138 175 236 188 790 1253 1558 1783 1946 2166 2116 2358 2659 2286 2132 2234 2144 1987 1915 1789 1760 1523 1606 1578 1560 1494 1847 2100 1855 2112 2248 2312 2387 2413 2316 2107 1933
0 21 14 3 0 0 1 0 0 4 16 30 24 0 42 50 22 32 37 35 9 0 169 604 827 646 813 743 1110 939 1092 1156 1143 1097 886 877 1092 1114 979 910 943 1020 1279 1463 1409 1531 761 328 261 248 230 263 344 884 1198 1468 1655 1866 2130 2160 2305 2662 2482 2152 2187 2149 2018 1939 1755 1809 1525 1678 1688 1616 1420 1701 2096 1941 2078 2250 2385 2300 2310 2316 2371 2339
0 25 11 7 9 7 0 0 0 0 16 26 10 14 10 4 5 46 53 65 7 6 264 591 534 607 958 1102 1154 1110 896 1033 1194 1262 1180 981 974 1099 1022 950 942 975 1069 1294 1344 1346 1633 534 358 323 250 307 420 880 1216 1384 1526 1716 1978 2242 2256 2529 2609 2305 2128 2160 2001 1992 1721 1775 1692 1449 1751 1776 1491 1680 1878 1979 2014 2121 2326 2278 2220 2201 2350 2380
0 0 29 3 14 0 0 0 0 1 18 18 9 21 0 0 4 35 49 60 34 23 74 514 385 332 659 1109 1227 1042 933 904 1236 1341 1289 1163 1021 930 968 969 954 932 929 1024 1170 1177 1429 1630 349 480 381 417 492 856 1239 1389 1566 1692 1851 2108 2232 2360 2516 2465 2135 2138 1989 1951 1755 1673 1701 1419 1568 1806 1542 1743 1771 1842 1930 2006 2038 2152 2208 2212 2056 2004
9 0 28 10 16 0 0 0 0 0 4 10 27 25 0 2 2 4 46 28 44 29 80 264 393 654 1147 1305 1278 1174 1258 1281 1164 1221 1295 1284 1138 973 844 756 822 868 838 866 1052 1112 1429 1591 1087 270 467 515 473 574 1137 1338 1597 1669 1830 1945 2103 2192 2300 2420 2190 2111 1991 1898 1747 1562 1636 1431 1576 1634 1601 1519 1595 1752 1778 1877 1963 1973 1922 1768 1702 1614
1 8 24 18 15 0 5 0 0 15 17 10 13 20 5 0 0 0 8 22 36 36 33 153 465 628 1075 1325 1186 1191 1391 1376 1362 1268 1358 1392 1337 1169 1111 825 588 802 1007 845 1166 993 1000 1330 1463 658 506 458 562 665 981 1298 1561 1624 1810 1886 1979 2074 2114 2227 2225 2131 2007 1876 1768 1590 1540 1497 1495 1522 1621 1553 1475 1505 1622 1688 1914 1899 1711 1704 1665 1689
63 0 2 14 19 12 10 0 11 9 28 18 12 5 5 8 16 0 2 2 92 253 60 699 1181 976 1017 1237 1144 1071 1215 1234 1220 1319 1394 1538 1328 1383 1369 1193 1030 776 791 1296 1475 1019 899 1024 1282 867 469 350 411 745 905 1291 1494 1622 1824 1878 1893 2062 2049 2058 2083 2069 2031 1866 1720 1626 1578 1512 1485 1459 1443 1490 1603 1444 1384 1579 1695 1714 1665 1665 1687 1751
0 3 0 3 4 14 11 0 15 10 15 16 15 5 11 22 50 0 48 47 117 300 164 318 555 918 1049 1060 996 865 725 855 779 954 1163 1278 1307 1227 1206 1269 1235 1171 930 1334 1506 1453 1311 1148 1220 1061 471 169 320 683 839 1246 1425 1590 1788 1898 1836 1991 2081 2047 1965 1899 1970 1875 1696 1718 1695 1554 1489 1430 1374 1418 1514 1680 1625 1486 1492 1736 1683 1771 1705 1697
0 0 0 3 5 0 18 8 6 19 19 32 4 24 293 238 120 290 388 443 484 503 610 535 676 781 776 666 449 434 535 730 946 1241 1416 1387 1218 1146 1002 969 1049 1019 894 1214 1327 1505 1498 1397 1222 1004 625 378 336 596 770 1114 1366 1517 1709 1861 1830 1851 2046 2075 2012 1926 1848 1859 1740 1722 1802 1755 1675 1441 1340 1374 1466 1481 1664 1641 1511 1671 1789 1783 1695 1568
0 0 0 0 0 3 1 1 1 16 16 36 37 216 486 467 402 309 440 496 596 629 522 546 660 659 550 299 229 498 754 778 892 1099 1299 1457 1272 1315 1030 1085 1225 851 821 1115 1344 1403 1230 1172 1121 937 777 436 1215 1477 1519 1046 1247 1400 1545 1740 1829 1864 1935 2027 2074 2081 1966 1937 1902 1758 1870 1916 1819 1608 1396 1290 1331 1302 1358 1509 1298 1256 1446 1601 1574 1467
0 0 0 0 0 0 0 0 0 107 33 9 20 235 462 498 548 494 368 484 642 404 331 632 623 445 286 213 192 346 450 482 621 788 1081 1121 1113 1212 1285 1104 1219 1282 1180 798 873 1169 1192 863 680 910 674 752 1025 1175 1327 1306 1130 1228 1320 1479 1752 1710 1739 1918 2015 2056 2140 2153 2022 1856 1848 1902 1791 1987 1653 1352 1257 1218 1147 1143 1233 1141 1142 1222 1280 1357
0 0 0 0 0 0 0 0 0 15 2 2 4 358 493 540 537 595 558 354 276 319 491 612 507 403 365 321 422 378 535 710 598 671 730 589 660 760 698 922 1222 1107 1154 1225 1188 875 813 776 817 706 710 541 791 858 1173 1359 1150 928 1212 1524 1651 1645 1662 1860 1932 1869 1876 1939 1911 1842 1758 1364 1670 1956 1982 2192 1289 1253 1206 1175 1089 982 1081 1194 1154 1162
0 0 0 0 0 0 0 0 0 0 2 12 40 438 483 487 529 661 756 620 574 623 598 554 486 378 324 320 510 643 685 714 674 733 669 598 340 491 507 675 902 1021 1037 1115 894 690 583 560 622 706 736 755 858 1015 1136 1302 1203 1098 1177 1260 1227 1192 1621 1651 1704 1535 1376 1395 1602 1496 1499 1374 1674 1805 2386 2119 2089 2066 2013 1775 1432 780 813 1303 1323 1260
0 0 324 0 0 0 0 0 0 0 0 4 87 474 580 575 535 508 682 756 616 533 494 478 475 322 357 466 503 579 476 526 693 717 553 476 460 440 438 502 583 634 856 920 865 408 514 716 891 821 703 782 967 1095 981 1007 1089 1094 1292 1168 1096 1185 1202 1268 1443 1511 1258 1069 984 1144 1305 1656 2012 2128 2148 2263 2266 2370 2450 2214 1759 1121 891 1176 1397 1387
0 0 0 0 0 0 0 0 15 95 271 188 8 145 632 580 538 560 535 464 379 306 253 359 420 400 379 570 566 520 506 324 278 577 451 431 491 531 553 491 564 720 731 707 723 589 544 540 705 614 651 756 881 974 892 798 806 921 750 749 975 1061 1005 1036 1276 1770 1688 1418 1102 927 1195 1422 1906 2126 2032 2055 2193 2242 2352 2173 1838 1364 1140 1281 1418 1513
0 0 0 0 0 0 0 0 1 136 172 147 9 155 612 464 463 516 591 631 607 557 521 452 422 493 550 587 454 448 530 501 380 454 535 455 482 503 443 359 371 441 559 524 494 571 464 535 537 390 565 776 889 920 975 1001 894 839 879 844 889 791 766 896 1214 1451 1770 1790 1713 1346 1124 1041 1033 1409 2076 2029 1862 1951 2018 2177 2137 2071 1631 1152 1295 1397
18 0 0 0 0 0 0 0 9 102 22 38 125 8 496 440 320 332 401 586 760 809 695 657 644 637 659 615 540 614 504 370 465 550 604 565 544 497 501 483 429 388 382 348 514 583 488 560 602 806 550 634 938 914 889 988 914 786 1049 1147 1112 875 852 684 772 1204 1467 1643 1676 1555 1488 1260 1070 1200 1384 1887 2013 1822 1728 1688 1832 2077 2031 1819 1440 1208
0 0 0 0 0 0 0 0 12 130 33 106 53 469 342 346 333 356 499 662 702 895 924 819 801 798 662 522 542 499 524 506 410 461 573 500 498 420 380 383 364 414 394 317 363 504 688 584 508 544 608 614 854 966 1030 1045 1080 1004 1094 1139 1152 1279 1220 1047 1144 1189 1210 1279 1388 1451 1430 1554 1616 1570 1592 1728 1991 2099 2016 1717 1477 1576 1740 2066 1843 1396
0 0 0 0 8 5 0 9 6 47 62 83 200 262 101 302 159 245 333 502 768 836 916 893 816 757 694 600 486 419 424 339 358 392 426 465 477 430 278 242 255 211 259 261 283 292 397 456 555 548 618 601 627 848 1120 1175 1195 1059 1073 1176 1087 914 765 983 1048 1099 995 1006 808 870 1064 1303 1518 1542 1542 1610 1613 1659 1771 1924 1664 1463 1758 1742 1617 1352
0 0 0 0 0 56 46 32 2 19 58 29 52 149 14 24 8 173 293 387 516 715 700 689 801 740 628 567 443 406 358 340 283 172 354 345 344 318 284 124 0 0 0 0 3 160 208 301 358 404 496 600 633 618 796 913 944 920 862 834 832 730 593 556 823 854 814 834 774 762 770 961 1215 1380 1464 1383 1298 1164 1147 1143 1335 1452 1355 1477 1482 1429
0 0 0 0 81 92 50 31 39 6 13 40 182 326 28 33 142 102 468 460 528 578 717 703 628 590 549 493 450 421 373 325 309 270 112 230 239 280 300 241 206 214 0 0 0 0 91 175 213 228 212 280 347 395 508 558 517 612 594 546 527 518 514 466 609 717 728 667 650 577 636 692 762 907 1085 1105 953 931 877 847 821 791 747 891 1156 1352
0 0 0 0 15 26 5 5 0 0 0 108 142 199 313 31 10 87 19 302 357 748 637 736 664 622 563 529 517 390 325 144 135 296 311 272 253 267 265 229 196 177 150 0 0 0 0 0 162 155 121 101 60 10 0 0 0 326 397 385 381 387 422 509 591 777 857 850 753 635 586 516 479 483 543 590 615 623 636 660 684 656 649 689 713 619
0 0 0 0 0 0 0 4 234 255 68 79 204 112 9 12 12 0 23 111 86 879 835 758 678 593 506 523 440 436 304 126 159 283 279 289 217 188 182 67 81 0 23 2 0 0 0 0 0 0 5 0 0 0 0 0 116 249 290 310 330 342 381 442 482 520 575 692 712 676 641 549 511 498 545 570 637 664 690 675 662 662 633 650 662 664
10 6 0 12 0 283 524 433 394 279 260 396 211 120 114 308 0 1 14 384 280 806 874 925 826 762 618 530 390 372 272 305 228 182 272 311 189 149 0 0 0 0 0 0 0 0 0 0 0 0 0 0 0 0 0 0 72 87 80 242 290 361 427 476 452 435 354 353 408 429 447 428 428 548 566 541 572 615 665 680 618 626 652 671 662 652
0 3 0 0 0 335 466 547 451 212 1 64 227 95 214 275 1 8 299 236 575 871 927 911 832 792 665 535 263 211 213 199 217 210 260 198 124 82 0 0 0 0 0 0 0 0 0 0 0 0 0 0 0 0 0 0 0 0 0 0 93 264 315 370 381 356 348 356 351 352 355 379 390 271 262 324 365 404 361 400 437 404 397 375 362 443
0 0 2 0 4 126 251 220 246 259 297 233 200 83 92 284 314 247 329 495 884 852 969 926 769 615 422 212 212 218 224 215 188 165 135 95 32 26 0 0 0 0 0 0 0 0 0 0 0 0 0 0 0 45 0 0 0 0 0 0 0 0 160 291 286 262 248 250 247 224 202 233 315 330 274 274 280 383 447 446 411 350 338 303 340 335
60 25 0 0 0 168 15 234 256 287 319 306 10 214 267 200 392 631 683 728 810 800 821 939 756 553 372 211 167 148 56 112 0 0 0 0 0 0 0 0 0 0 0 0 0 0 0 0 0 0 0 0 0 0 0 0 0 0 0 0 0 0 15 138 195 185 86 220 213 205 203 191 161 199 234 270 279 312 346 337 339 336 298 252 232 308
65 106 0 2 20 88 91 139 266 313 370 376 386 360 407 458 603 644 636 684 707 720 855 941 807 627 422 197 148 41 0 0 0 0 0 0 0 0 0 0 0 0 0 0 0 0 0 0 0 0 0 0 0 0 0 0 0 0 0 0 0 0 0 0 0 28 94 118 0 0 258 268 212 202 220 229 233 236 244 305 345 358 326 316 304 272
75 19 0 16 83 26 0 8 27 12 288 320 359 387 433 465 518 580 583 611 769 905 937 952 862 694 547 409 316 121 7 0 0 0 0 0 0 0 0 0 0 0 0 0 0 0 0 0 0 0 0 0 0 0 0 0 0 0 0 0 0 0 0 0 0 0 0 0 0 0 32 77 142 192 217 164 202 218 240 269 311 328 318 269 274 262
24 112 84 48 6 119 108 135 82 90 94 308 360 352 349 385 419 507 607 824 1020 1044 1014 1023 968 810 706 612 463 343 12 0 0 0 0 0 0 0 0 0 0 0 0 0 0 0 0 0 0 0 0 0 0 0 0 0 0 0 0 0 0 0 0 0 0 0 0 0 0 0 0 0 0 0 0 0 179 224 214 226 245 262 136 200 270 217
22 10 73 129 110 2 101 130 96 104 89 32 18 331 334 360 418 458 549 816 1051 1124 1132 1130 1042 947 818 765 657 461 363 1 0 0 0 0 0 0 0 0 0 0 0 0 0 0 0 0 0 0 0 0 0 0 0 0 0 0 0 0 0 0 0 0 0 0 0 0 0 0 0 0 0 0 0 0 14 0 127 189 0 0 0 99 0 96
10 179 317 281 467 254 236 228 235 284 32 41 34 8 12 372 462 554 609 576 561 805 992 1026 985 872 834 842 754 617 438 322 41 0 0 0 0 0 0 0 0 0 0 0 0 0 0 0 0 0 0 0 0 0 0 0 0 0 0 0 0 0 0 0 0 0 0 0 0 0 0 0 0 0 0 0 0 0 0 0 0 0 0 8 58 0
0 20 214 311 50 32 142 278 2 51 133 101 95 28 73 28 332 563 584 470 488 741 937 1010 944 853 790 824 816 702 623 515 371 255 0 0 0 0 0 0 0 0 0 0 0 0 0 0 0 0 0 0 0 0 0 0 0 0 0 0 0 0 0 0 0 0 0 0 0 0 0 0 0 0 0 0 0 0 0 0 0 41 0 33 1 7
6 14 0 0 0 23 0 17 0 0 1 12 31 5 79 44 6 30 368 540 573 490 541 843 904 832 742 710 806 764 753 638 402 305 248 0 0 0 0 0 0 0 0 0 0 0 0 0 0 0 0 0 0 0 0 0 0 0 0 0 0 0 0 0 0 0 0 0 0 0 0 0 0 0 0 0 0 0 0 0 0 0 0 0 0 0
Wind_Speed
nan nan nan nan nan nan nan nan nan nan nan nan nan 16 10 10 11 14 11 10 10 13 8 11 15 16 15 14 15 14 12 11 11 11 nan nan nan nan nan nan nan nan nan nan nan nan nan nan nan nan 3 2 3 3 5 5 5 5 5 6 8 11 12 12 13 12 12 12 13 14 13 14 16 15 15 14 14 14 14 14 15 15 16 17 16 15
nan nan nan nan nan nan nan nan nan nan nan nan 24 15 15 18 15 10 11 11 9 13 12 13 19 25 22 14 13 15 15 13 13 12 nan nan nan nan nan nan nan nan nan nan nan nan nan nan nan 4 5 4 4 2 4 5 5 5 5 6 8 9 9 11 12 12 11 11 12 12 14 14 14 14 13 14 14 14 13 13 14 15 14 15 14 13
nan nan nan nan nan nan nan nan nan nan nan nan nan 20 16 18 17 17 13 10 9 16 13 17 23 17 10 15 19 18 19 16 13 13 14 13 nan nan nan nan nan nan nan nan nan nan nan nan nan 6 5 5 5 3 4 4 4 4 4 4 6 7 7 9 11 10 11 11 11 10 12 11 13 14 13 12 13 13 12 12 13 13 13 13 13 12
nan nan nan nan nan nan nan nan nan nan nan nan nan 23 13 11 12 12 12 11 11 13 14 19 25 17 9 13 17 18 20 19 16 16 16 15 15 nan nan nan nan nan nan nan nan nan nan nan nan nan 6 6 6 5 5 4 4 3 2 2 3 5 5 8 10 10 12 11 12 10 8 8 8 11 11 10 10 11 10 11 12 12 11 12 12 11
nan nan nan nan nan nan nan nan nan nan nan nan nan 19 15 5 7 9 7 14 15 20 19 23 22 17 7 7 15 18 22 20 20 21 17 15 15 14 15 nan nan nan nan nan nan nan nan nan nan nan 7 8 8 5 5 4 3 3 3 1 1 3 5 8 10 10 11 10 11 10 11 10 10 10 8 8 10 10 10 9 11 12 10 11 11 10
nan nan nan nan nan nan nan nan nan nan nan nan nan 16 7 2 5 14 16 18 14 14 11 20 17 11 9 1 8 17 21 17 21 21 15 15 17 16 16 nan nan nan nan nan nan nan nan nan nan 10 8 8 9 7 6 5 4 5 4 2 3 4 6 8 10 9 9 9 9 9 8 7 7 6 6 7 7 9 9 10 10 10 10 10 10 9
nan nan nan nan nan nan nan nan nan nan nan nan nan 11 5 5 11 15 15 17 14 7 5 9 17 11 11 5 6 12 13 11 18 18 15 15 15 16 15 16 nan nan nan nan nan nan nan nan nan 12 10 9 9 7 7 6 6 6 5 3 2 4 7 9 9 8 8 8 8 9 9 9 7 5 9 7 7 7 8 7 8 9 10 9 9 9
nan nan nan nan nan nan nan nan nan nan nan nan nan 18 21 17 13 11 16 12 13 12 12 6 14 14 9 5 7 9 9 9 10 12 13 13 13 15 15 17 16 nan nan nan nan nan nan nan nan 13 11 9 8 9 8 7 8 7 5 3 2 4 5 9 8 6 7 6 7 8 9 9 8 7 7 8 7 7 6 5 6 7 9 9 9 7
nan nan nan nan nan nan nan nan nan nan nan nan 21 20 16 13 11 10 12 12 13 15 8 3 7 14 8 12 15 12 7 4 3 4 7 9 10 15 16 17 18 nan nan nan nan nan nan nan nan 13 12 8 9 9 9 8 7 6 5 4 3 3 4 7 6 5 5 4 5 6 7 7 9 8 7 7 7 6 6 5 5 6 8 8 9 8
nan nan nan nan nan nan nan nan nan nan nan nan 16 22 17 15 15 14 13 13 14 16 7 2 3 10 11 14 13 10 4 8 7 5 3 8 8 14 16 17 18 19 nan nan nan nan nan nan nan nan 12 9 8 8 8 8 8 7 6 4 3 2 4 5 4 4 4 4 4 4 5 5 7 8 7 6 5 6 6 5 5 6 7 8 7 7
nan nan nan nan nan nan nan nan nan nan nan nan nan 19 15 12 15 16 15 18 20 16 10 1 3 7 10 8 9 13 7 14 11 4 1 5 7 9 15 17 20 20 nan nan nan nan nan nan nan nan 12 10 8 8 7 7 8 7 5 4 2 2 3 4 3 4 3 4 4 4 3 3 4 6 5 6 6 5 5 5 5 5 7 7 6 5
nan nan nan nan nan nan nan nan nan nan nan nan nan nan nan 18 15 20 20 23 21 15 nan 2 5 3 11 7 6 4 6 13 15 15 14 10 9 8 10 16 22 23 nan nan nan nan nan nan nan nan 12 10 9 9 8 7 8 7 5 4 3 4 3 4 4 4 4 3 4 5 3 2 3 3 4 4 4 4 3 4 4 5 6 7 6 4
nan nan nan nan nan nan nan nan nan nan nan nan nan nan nan nan 16 14 16 17 19 nan nan 6 13 12 9 2 6 11 9 4 10 12 16 16 13 12 12 13 20 28 22 nan nan nan nan nan nan nan nan 10 9 9 10 9 9 8 6 5 4 4 5 4 5 4 4 4 3 4 3 4 4 3 3 4 5 5 4 4 4 4 5 5 5 4
nan nan nan nan nan nan nan nan nan nan nan nan nan nan nan nan nan nan nan nan nan nan nan 13 17 12 14 12 3 7 11 8 8 9 12 16 17 17 17 13 17 29 23 nan nan nan nan nan nan nan nan nan 9 11 11 10 10 9 7 6 5 4 6 7 6 5 4 3 3 4 4 4 5 4 4 4 4 5 5 4 4 4 4 4 4 4
nan nan nan nan nan nan nan nan nan nan nan nan nan nan nan nan nan nan nan nan nan nan nan 14 19 14 14 12 11 3 8 8 5 7 9 13 15 16 18 15 16 28 23 17 nan nan nan nan nan nan nan nan nan 11 12 11 10 10 9 8 6 6 6 7 7 7 4 4 4 5 5 5 5 4 4 4 4 4 4 5 5 5 5 5 5 4
nan nan nan nan nan nan nan nan nan nan nan nan nan nan nan nan nan nan nan nan nan nan nan 13 16 nan 13 13 13 7 10 11 8 7 9 11 12 12 16 15 12 23 20 17 16 nan nan nan nan nan nan nan nan 12 13 13 11 11 10 8 7 7 6 6 7 6 5 4 5 6 6 4 4 5 5 4 5 4 3 3 3 4 5 5 5 6
nan nan nan nan nan nan nan nan nan nan nan nan nan nan nan nan nan nan nan nan nan nan nan 14 19 18 15 15 12 8 12 11 10 8 9 10 11 11 13 13 1 13 13 14 15 nan 12 nan nan nan 10 11 10 11 13 14 12 12 12 10 8 8 8 7 7 7 6 5 6 6 6 5 5 4 3 3 3 3 3 3 3 4 5 6 7 7
nan nan nan nan nan nan nan nan nan nan nan nan nan nan nan nan nan nan nan nan nan nan nan 19 17 15 17 12 13 10 10 9 9 7 8 8 9 11 9 9 5 2 5 9 14 17 15 14 nan 11 10 10 9 10 14 16 15 14 14 12 11 9 9 8 9 8 8 6 6 7 6 6 4 4 3 4 4 4 4 4 3 4 6 6 6 6
nan nan nan nan nan nan nan nan nan nan nan nan nan nan nan nan nan nan nan nan nan nan 23 20 18 15 13 11 17 13 9 8 10 10 8 5 6 8 6 5 4 3 4 7 11 18 20 17 14 11 10 10 10 10 14 17 17 16 14 13 13 10 9 9 9 9 9 9 9 8 7 7 6 5 5 6 5 5 5 4 3 2 3 5 6 6
nan nan nan nan nan nan nan nan nan nan nan nan nan nan nan nan nan nan nan nan nan nan 28 21 21 17 15 14 14 11 12 10 12 14 9 4 1 2 2 1 2 2 4 7 9 14 20 21 15 12 11 11 12 13 15 17 18 18 16 15 14 12 11 10 10 10 10 10 10 10 11 10 10 8 7 6 6 6 5 5 4 4 5 4 6 6
nan nan nan nan nan nan nan nan nan nan nan nan nan nan nan nan nan nan nan nan nan nan nan 21 20 19 18 16 17 17 18 15 12 11 11 9 5 2 2 3 3 2 3 7 9 13 19 22 20 18 16 14 15 16 18 18 19 19 18 15 16 16 13 12 11 11 11 12 11 12 11 11 12 11 10 9 8 8 7 7 7 6 6 7 6 7
nan nan nan nan nan nan nan nan nan nan nan nan nan nan nan nan nan nan nan nan nan nan nan 24 18 19 18 20 24 24 21 22 20 14 14 14 10 9 9 11 12 10 9 10 12 20 17 15 17 22 25 26 22 19 19 19 22 22 19 16 16 16 15 14 13 14 13 13 12 12 12 11 12 13 13 11 10 9 9 9 9 9 10 8 7 8
nan nan nan nan nan nan nan nan nan nan nan nan nan nan nan nan nan nan nan nan nan nan nan 22 22 19 18 21 22 24 25 28 27 24 22 24 26 24 24 25 22 18 12 4 8 11 13 14 16 20 23 25 25 22 20 21 21 23 22 19 16 16 14 14 15 16 16 15 14 13 13 13 12 12 13 12 12 10 10 10 10 11 10 9 9 10
nan nan nan nan nan nan nan nan nan nan nan nan nan nan nan nan nan nan nan nan nan 26 nan 22 23 18 20 24 22 25 28 31 33 32 28 26 24 24 21 19 17 12 10 14 14 14 15 19 21 24 25 25 24 27 21 20 20 22 24 21 17 16 15 15 17 18 17 17 17 16 15 15 14 12 12 13 14 11 11 12 11 13 12 11 12 11
nan nan nan nan nan nan nan nan nan nan nan nan nan nan nan nan nan nan nan nan 22 25 19 20 17 18 21 31 34 35 35 38 38 35 32 31 31 32 30 27 22 18 22 22 18 17 18 20 21 21 23 23 23 23 23 19 17 20 24 23 18 17 18 17 18 18 17 17 18 18 17 16 15 14 13 14 16 14 13 13 13 14 13 13 13 13
nan nan nan nan nan nan nan nan nan nan nan nan nan nan 47 49 45 37 27 26 25 27 29 25 22 19 24 38 41 37 33 34 33 29 29 31 31 29 29 28 28 30 30 29 27 25 22 22 25 25 24 25 25 25 24 20 16 18 24 24 21 21 20 18 20 19 17 17 18 18 17 17 16 15 15 15 17 16 15 15 14 14 14 14 13 13
nan nan nan nan nan nan nan nan nan nan nan nan nan 50 48 46 44 32 26 30 31 29 33 28 23 24 36 41 39 36 32 29 29 30 31 31 33 31 30 28 29 32 34 37 36 34 30 26 23 24 28 31 34 36 33 27 19 20 25 27 25 22 22 21 22 21 19 18 18 19 17 16 17 17 16 16 17 18 18 17 16 14 13 14 14 14
nan nan nan nan nan nan nan nan nan 38 nan nan nan 46 48 46 42 41 36 32 33 36 38 32 30 29 32 37 41 39 35 30 29 29 29 29 30 31 32 31 31 30 31 30 32 34 38 38 36 33 31 33 37 42 43 47 46 40 36 36 36 35 32 29 23 22 20 19 20 25 27 26 24 23 17 15 16 16 17 17 16 15 14 13 13 14
nan nan nan nan nan nan nan nan nan nan nan nan nan 45 48 47 46 42 38 36 35 36 32 31 33 33 30 37 42 43 38 36 35 33 31 28 27 29 31 31 32 33 33 34 34 35 37 37 36 35 37 37 38 41 43 45 47 46 45 47 48 46 42 40 39 32 25 26 27 24 22 25 25 26 27 20 15 15 16 17 17 16 15 15 14 15
nan nan nan nan nan nan nan nan nan nan nan nan nan 46 48 51 50 45 44 48 48 43 40 40 39 38 35 37 43 44 41 40 37 33 33 31 30 29 28 28 32 33 33 34 32 32 34 37 36 33 34 32 33 33 37 39 43 42 40 39 40 44 45 40 37 36 33 26 28 27 26 27 30 31 29 26 24 22 21 22 21 19 17 16 16 16
nan nan 17 nan nan nan nan nan nan nan nan nan nan 46 48 49 53 52 47 45 47 47 46 45 43 39 35 37 41 42 44 43 42 42 38 33 33 34 31 28 28 27 26 32 34 33 33 35 33 32 33 33 33 33 37 40 39 40 40 38 38 41 41 39 36 36 35 27 26 29 27 29 31 31 31 27 26 26 24 23 24 24 21 19 17 17
nan nan nan nan nan nan nan nan nan nan 47 50 nan 47 47 48 50 51 50 44 44 44 41 45 46 40 37 41 40 48 50 50 45 41 39 37 37 37 34 32 33 30 28 30 33 33 34 35 34 35 33 33 34 38 41 43 42 41 39 38 38 39 41 41 38 37 37 30 26 30 31 32 33 34 31 29 27 27 26 24 24 24 23 22 21 19
nan nan nan nan nan nan nan nan nan 25 39 49 nan 41 39 45 45 51 54 52 47 43 48 47 40 39 40 39 41 46 50 49 46 42 41 39 38 35 34 34 34 33 30 29 31 34 35 34 33 32 30 29 31 35 39 42 44 43 40 39 37 37 40 40 36 32 31 26 24 28 31 32 34 35 33 30 28 27 26 27 27 26 25 22 21 22
nan nan nan nan nan nan nan nan nan 30 nan nan 41 nan 33 39 47 52 51 51 51 47 45 45 43 42 43 44 44 43 45 43 41 39 40 39 37 37 36 35 34 33 33 31 32 33 33 32 33 35 34 31 29 33 39 44 43 41 40 39 38 38 38 38 31 26 25 22 20 25 29 31 35 36 35 33 30 28 28 27 26 25 26 25 25 24
nan nan nan nan nan nan nan nan nan 28 nan 29 nan 47 41 45 50 53 54 55 52 50 50 49 48 48 48 48 46 41 37 35 36 36 38 40 37 36 36 36 33 32 32 32 34 35 34 34 35 35 34 34 32 29 32 37 37 37 39 38 37 36 38 37 29 23 22 20 20 26 28 27 30 32 34 34 32 31 29 28 28 26 26 27 29 30
nan nan nan nan nan nan nan nan nan nan nan nan 32 37 30 32 41 52 54 54 50 48 46 45 44 47 47 46 46 44 42 38 39 40 37 36 36 33 34 34 35 36 35 32 33 34 34 34 37 38 36 34 35 31 28 30 32 37 39 37 33 32 34 33 30 29 27 24 23 25 25 26 27 28 31 33 36 36 33 31 28 29 33 33 29 26
nan nan nan nan nan nan nan nan nan nan nan nan nan 30 nan nan nan 36 41 44 41 40 42 42 42 43 44 44 44 46 45 45 46 44 44 40 38 35 31 28 nan nan nan nan nan 35 34 33 33 35 35 36 37 34 31 31 33 36 36 36 32 31 32 32 32 30 27 25 24 27 27 27 26 25 24 25 28 30 30 30 30 34 36 29 27 28
nan nan nan nan nan nan nan nan nan nan nan nan 17 17 nan nan 26 31 37 35 34 34 34 37 39 41 42 41 41 41 43 48 44 40 40 40 39 40 38 35 34 34 nan nan nan nan nan 36 35 35 34 36 36 34 32 33 36 37 37 36 33 32 30 30 28 25 24 22 22 24 24 24 23 22 21 21 22 23 24 26 29 33 34 26 25 26
nan nan nan nan nan nan nan nan nan nan nan 15 16 17 13 nan nan nan nan 30 26 28 28 30 34 38 39 39 39 40 44 44 38 36 36 36 39 40 43 43 40 36 34 nan nan nan nan nan 36 34 34 36 nan nan nan nan nan 34 35 36 35 34 33 31 29 25 23 23 23 22 22 21 21 21 21 21 23 24 23 22 24 28 31 30 29 29
nan nan nan nan nan nan nan nan 13 13 nan nan 15 15 nan nan nan nan nan 20 nan 22 24 26 27 31 34 35 35 38 38 38 34 35 36 36 36 36 39 nan nan nan nan nan nan nan nan nan nan nan nan nan nan nan nan nan 35 34 34 34 33 35 34 33 30 26 22 21 23 24 24 23 23 22 23 23 25 25 23 23 23 24 23 21 20 20
nan nan nan nan nan 10 13 10 12 11 10 10 11 11 10 12 nan nan nan 13 15 18 21 22 23 25 27 30 32 30 29 30 36 37 37 35 33 33 nan nan nan nan nan nan nan nan nan nan nan nan nan nan nan nan nan nan nan nan nan 33 34 34 34 33 33 31 26 25 28 28 27 27 27 26 27 26 24 22 22 22 21 23 22 20 21 21
nan nan nan nan nan 10 11 13 8 6 nan nan 5 nan 12 14 nan nan 11 13 16 15 18 21 22 22 27 30 30 30 30 34 38 34 35 35 35 nan nan nan nan nan nan nan nan nan nan nan nan nan nan nan nan nan nan nan nan nan nan nan nan 31 30 32 34 35 33 32 32 32 31 31 32 32 31 31 28 26 29 29 26 26 26 24 26 27
nan nan nan nan nan 11 12 12 8 6 5 6 5 nan nan 15 10 12 15 14 15 16 19 20 21 22 26 30 29 32 34 35 34 34 33 nan nan nan nan nan nan nan nan nan nan nan nan nan nan nan nan nan nan nan nan nan nan nan nan nan nan nan 33 33 35 37 38 36 36 35 35 36 37 37 35 35 34 33 34 34 37 34 30 29 31 31
nan nan nan nan nan 12 nan 11 8 5 6 7 nan 10 8 9 12 16 18 16 14 16 18 20 20 22 25 29 28 29 nan 32 nan nan nan nan nan nan nan nan nan nan nan nan nan nan nan nan nan nan nan nan nan nan nan nan nan nan nan nan nan nan nan 40 41 43 nan 40 37 36 37 37 38 39 38 37 36 37 38 38 36 36 37 34 31 33
nan 11 nan nan nan nan nan 9 8 7 9 13 16 13 12 14 15 14 16 14 16 16 16 19 19 21 23 25 26 nan nan nan nan nan nan nan nan nan nan nan nan nan nan nan nan nan nan nan nan nan nan nan nan nan nan nan nan nan nan nan nan nan nan nan nan nan nan 44 nan nan 39 39 40 40 40 40 40 40 40 40 39 40 37 37 35 33
nan nan nan nan nan nan nan nan nan nan 15 15 14 14 17 16 16 18 18 16 13 14 16 18 18 19 20 21 24 21 nan nan nan nan nan nan nan nan nan nan nan nan nan nan nan nan nan nan nan nan nan nan nan nan nan nan nan nan nan nan nan nan nan nan nan nan nan nan nan nan nan nan 43 43 42 41 42 43 42 42 42 41 39 38 39 37
nan 10 nan nan nan 15 9 8 nan nan nan 15 15 14 14 15 14 15 17 16 15 16 16 16 18 17 18 19 19 19 nan nan nan nan nan nan nan nan nan nan nan nan nan nan nan nan nan nan nan nan nan nan nan nan nan nan nan nan nan nan nan nan nan nan nan nan nan nan nan nan nan nan nan nan nan nan 41 42 41 41 42 43 41 39 40 41
nan nan nan 8 9 nan 6 8 nan 11 nan nan nan 16 14 13 13 14 14 15 15 15 16 17 19 18 18 19 18 19 18 nan nan nan nan nan nan nan nan nan nan nan nan nan nan nan nan nan nan nan nan nan nan nan nan nan nan nan nan nan nan nan nan nan nan nan nan nan nan nan nan nan nan nan nan nan nan nan 42 42 nan nan nan nan nan nan
nan 11 9 8 12 10 11 9 10 13 nan nan nan nan nan 13 13 13 14 15 15 16 16 17 17 17 18 18 19 21 20 17 nan nan nan nan nan nan nan nan nan nan nan nan nan nan nan nan nan nan nan nan nan nan nan nan nan nan nan nan nan nan nan nan nan nan nan nan nan nan nan nan nan nan nan nan nan nan nan nan nan nan nan nan nan nan
nan nan 10 15 nan nan 11 9 nan nan 7 6 nan nan nan nan 16 14 14 15 15 16 15 16 16 17 18 19 20 20 20 18 18 19 nan nan nan nan nan nan nan nan nan nan nan nan nan nan nan nan nan nan nan nan nan nan nan nan nan nan nan nan nan nan nan nan nan nan nan nan nan nan nan nan nan nan nan nan nan nan nan nan nan nan nan nan
nan nan nan nan nan nan nan nan nan nan nan nan nan nan nan nan nan nan 15 15 15 16 16 17 17 17 18 17 18 20 19 19 17 19 19 nan nan nan nan nan nan nan nan nan nan nan nan nan nan nan nan nan nan nan nan nan nan nan nan nan nan nan nan nan nan nan nan nan nan nan nan nan nan nan nan nan nan nan nan nan nan nan nan nan nan nan
Wind_Direction
nan nan nan nan nan nan nan nan nan nan nan nan nan 175 189 202 192 206 220 232 254 252 262 267 254 254 251 244 228 226 233 231 224 216 nan nan nan nan nan nan nan nan nan nan nan nan nan nan nan nan 235 273 293 306 337 336 353 9 27 48 61 80 88 88 89 89 87 94 100 109 93 87 89 89 93 92 99 100 101 107 107 106 108 111 115 119
nan nan nan nan nan nan nan nan nan nan nan nan 186 185 184 192 197 201 230 255 254 244 242 252 248 233 227 233 224 215 231 235 237 235 nan nan nan nan nan nan nan nan nan nan nan nan nan nan nan 249 244 245 260 268 326 321 336 354 2 26 49 73 81 86 88 87 94 109 108 107 99 103 99 98 93 94 96 96 99 103 104 106 110 112 115 117
nan nan nan nan nan nan nan nan nan nan nan nan nan 190 206 200 204 210 224 272 264 239 245 255 254 260 266 220 218 225 230 230 230 238 236 222 nan nan nan nan nan nan nan nan nan nan nan nan nan 257 253 249 262 282 307 296 304 325 345 17 39 61 74 88 92 98 105 115 114 115 110 99 107 99 91 89 91 95 95 97 100 107 110 110 111 114
nan nan nan nan nan nan nan nan nan nan nan nan nan 196 192 208 220 191 203 258 254 233 254 256 252 251 216 217 220 223 231 230 234 234 231 222 225 nan nan nan nan nan nan nan nan nan nan nan nan nan 255 254 244 239 234 250 285 278 289 16 40 60 82 92 98 102 110 111 113 123 122 107 101 104 107 106 101 101 98 94 97 104 105 104 103 107
nan nan nan nan nan nan nan nan nan nan nan nan nan 191 190 213 173 222 247 245 240 224 252 253 245 252 258 212 218 220 233 230 237 236 225 223 218 217 207 nan nan nan nan nan nan nan nan nan nan nan 268 266 266 252 244 245 252 228 296 317 65 92 90 104 108 104 116 121 123 135 150 152 155 149 135 128 112 99 95 101 100 93 97 96 98 100
nan nan nan nan nan nan nan nan nan nan nan nan nan 195 184 16 228 219 266 260 241 229 244 276 252 264 292 302 225 231 226 228 240 240 231 220 222 217 207 nan nan nan nan nan nan nan nan nan nan 279 280 278 272 267 253 255 248 246 250 239 177 143 126 112 113 117 120 109 108 118 120 121 132 125 110 97 90 101 95 90 102 104 97 94 98 99
nan nan nan nan nan nan nan nan nan nan nan nan nan 177 203 262 244 267 278 257 246 259 280 280 258 250 269 290 253 244 237 229 237 238 227 226 227 228 212 224 nan nan nan nan nan nan nan nan nan 291 288 281 278 272 263 251 243 250 246 233 198 151 132 121 125 123 120 116 110 104 105 111 108 99 102 102 95 87 96 107 103 97 102 101 94 101
nan nan nan nan nan nan nan nan nan nan nan nan nan 207 214 239 261 300 311 283 234 223 235 293 238 254 248 247 258 276 267 263 240 228 225 228 234 239 223 219 229 nan nan nan nan nan nan nan nan 300 293 281 281 276 271 257 246 255 244 238 204 167 135 135 135 119 115 115 111 110 113 116 109 98 95 97 91 95 96 95 95 98 97 99 102 101
nan nan nan nan nan nan nan nan nan nan nan nan 208 221 231 253 276 285 268 245 235 236 218 255 234 235 231 227 250 269 286 313 282 234 245 241 250 252 232 220 226 nan nan nan nan nan nan nan nan 292 288 280 280 277 276 269 262 255 248 245 206 174 149 153 139 130 123 123 110 104 112 121 118 113 109 110 103 99 103 92 99 92 95 97 103 103
nan nan nan nan nan nan nan nan nan nan nan nan 209 217 213 225 234 256 239 239 235 217 188 154 258 241 232 242 254 256 301 21 34 22 305 278 272 259 242 225 226 228 nan nan nan nan nan nan nan nan 285 282 286 278 276 272 266 263 253 246 228 177 166 174 159 161 154 143 136 119 112 120 126 132 139 138 115 112 116 103 98 97 95 96 104 109
nan nan nan nan nan nan nan nan nan nan nan nan nan 222 215 215 211 202 216 224 219 204 170 55 325 243 234 261 277 287 333 10 13 23 315 273 270 269 256 239 232 231 nan nan nan nan nan nan nan nan 288 292 285 276 280 270 272 272 269 258 236 191 187 201 202 201 200 173 153 142 121 123 134 137 145 154 149 140 131 111 109 111 104 111 111 122
nan nan nan nan nan nan nan nan nan nan nan nan nan nan nan 205 195 203 203 210 214 186 nan 235 319 280 222 222 262 3 352 354 344 359 11 2 345 330 284 250 232 228 nan nan nan nan nan nan nan nan 287 293 293 286 285 272 271 275 273 265 236 208 217 211 222 228 224 208 168 173 161 130 141 151 149 142 145 144 130 125 122 119 125 125 130 135
nan nan nan nan nan nan nan nan nan nan nan nan nan nan nan nan 201 206 217 207 199 nan nan 288 281 230 161 190 353 8 34 1 347 342 356 1 354 351 335 285 229 223 223 nan nan nan nan nan nan nan nan 289 294 285 292 288 280 277 275 283 261 221 231 223 226 230 231 223 191 190 184 161 162 166 160 153 156 158 170 166 161 152 132 145 155 140
nan nan nan nan nan nan nan nan nan nan nan nan nan nan nan nan nan nan nan nan nan nan nan 274 289 226 193 177 253 2 27 18 354 342 340 342 346 346 344 318 237 218 213 nan nan nan nan nan nan nan nan nan 289 281 290 290 283 275 273 276 277 239 226 229 226 224 225 221 204 198 197 173 172 170 167 165 165 165 172 182 181 178 161 167 162 158
nan nan nan nan nan nan nan nan nan nan nan nan nan nan nan nan nan nan nan nan nan nan nan 262 249 204 210 199 205 4 3 334 326 336 325 334 336 333 337 323 239 211 205 208 nan nan nan nan nan nan nan nan nan 278 284 282 279 278 277 276 279 253 231 233 233 223 218 202 203 199 198 183 169 168 164 164 170 185 178 174 196 188 187 189 176 181
nan nan nan nan nan nan nan nan nan nan nan nan nan nan nan nan nan nan nan nan nan nan nan 229 224 nan 209 190 194 234 284 303 307 333 324 333 331 326 334 335 239 204 199 205 209 nan nan nan nan nan nan nan nan 275 278 282 273 274 276 277 280 276 257 243 239 231 224 200 197 200 200 187 175 170 170 168 172 178 176 172 198 192 183 183 191 185
nan nan nan nan nan nan nan nan nan nan nan nan nan nan nan nan nan nan nan nan nan nan nan 212 218 209 190 195 198 233 271 277 286 310 327 335 348 343 348 356 251 190 198 209 221 nan 241 nan nan nan 245 241 255 269 278 279 277 276 275 275 276 268 256 251 243 238 223 212 205 197 198 201 192 188 174 154 157 168 168 175 190 192 176 188 191 189
nan nan nan nan nan nan nan nan nan nan nan nan nan nan nan nan nan nan nan nan nan nan nan 216 214 209 213 203 192 227 244 265 275 297 325 333 347 360 1 6 34 135 207 223 228 224 227 249 nan 249 246 246 252 268 271 277 273 267 270 274 275 268 267 256 250 244 234 224 214 208 207 208 213 203 185 179 175 184 191 182 183 188 189 185 184 186
nan nan nan nan nan nan nan nan nan nan nan nan nan nan nan nan nan nan nan nan nan nan 215 209 204 216 219 208 203 208 225 258 249 254 276 316 355 12 13 7 3 354 262 244 241 231 221 226 247 248 255 250 250 253 264 274 272 265 260 262 271 274 270 268 250 247 240 237 225 217 223 229 225 221 208 201 204 199 199 192 190 199 200 198 189 184
nan nan nan nan nan nan nan nan nan nan nan nan nan nan nan nan nan nan nan nan nan nan 216 210 214 215 218 217 206 191 198 257 254 251 258 266 354 28 34 31 13 347 276 254 246 232 219 215 229 252 256 258 258 251 255 266 266 274 264 261 257 256 255 255 252 248 247 244 239 233 229 231 236 238 233 230 230 225 214 204 209 213 228 220 211 203
nan nan nan nan nan nan nan nan nan nan nan nan nan nan nan nan nan nan nan nan nan nan nan 216 207 203 214 216 207 199 199 219 260 267 252 256 263 242 209 214 194 181 221 233 230 224 217 213 221 222 230 253 255 253 255 256 266 268 262 261 260 260 255 256 254 250 245 243 245 247 242 240 241 247 245 240 239 234 224 218 216 219 224 228 222 223
nan nan nan nan nan nan nan nan nan nan nan nan nan nan nan nan nan nan nan nan nan nan nan 223 203 204 212 218 214 205 196 211 217 231 229 233 253 253 235 224 212 201 197 210 222 224 219 226 238 243 227 223 227 258 265 263 261 268 269 267 262 258 258 258 254 251 246 244 247 252 249 247 240 243 244 244 238 234 230 227 227 225 227 233 229 234
nan nan nan nan nan nan nan nan nan nan nan nan nan nan nan nan nan nan nan nan nan nan nan 222 222 211 214 216 212 204 201 208 215 223 227 225 229 236 244 248 243 227 218 259 264 255 229 227 238 239 238 243 235 231 268 268 268 271 272 272 266 265 260 256 256 252 249 248 247 249 251 248 242 242 245 246 239 236 235 231 232 234 235 232 230 229
nan nan nan nan nan nan nan nan nan nan nan nan nan nan nan nan nan nan nan nan nan 199 nan 214 216 208 216 224 215 208 204 209 214 215 217 216 221 236 249 261 260 260 265 246 254 252 244 239 236 238 241 241 240 250 245 257 267 270 268 270 269 272 267 257 250 250 251 249 245 245 246 245 241 242 241 243 239 243 242 237 235 237 239 238 233 231
nan nan nan nan nan nan nan nan nan nan nan nan nan nan nan nan nan nan nan nan 203 197 207 230 214 207 217 223 218 214 205 209 214 208 211 216 214 211 214 218 219 231 232 238 250 248 242 245 245 250 253 253 250 253 251 245 258 268 265 266 267 265 265 258 252 251 251 250 246 242 243 244 243 240 236 235 235 240 245 244 239 238 241 241 236 234
nan nan nan nan nan nan nan nan nan nan nan nan nan nan 200 198 187 187 192 191 204 197 209 211 208 199 207 220 219 219 219 211 209 210 210 215 217 222 221 218 219 215 214 218 221 229 236 232 231 237 240 240 246 251 243 233 241 253 256 258 255 255 253 251 248 252 250 245 246 241 242 242 242 241 238 234 233 237 239 240 238 237 238 245 247 241
nan nan nan nan nan nan nan nan nan nan nan nan nan 204 207 205 194 195 201 203 201 204 214 208 210 207 207 208 216 221 227 222 208 204 206 210 213 217 225 225 227 231 225 217 212 211 215 226 238 233 231 230 227 225 223 217 223 240 246 248 246 247 250 246 244 247 245 244 248 245 247 247 246 245 242 240 238 235 237 238 237 238 239 242 249 252
nan nan nan nan nan nan nan nan nan 194 nan nan nan 208 213 214 206 205 203 198 201 213 206 204 208 224 207 210 215 220 223 224 215 207 207 213 218 216 217 216 222 229 231 233 229 222 215 208 209 221 230 230 231 234 231 222 213 209 217 226 226 224 225 228 241 246 244 246 246 240 235 227 228 228 231 245 245 242 240 241 243 242 240 242 247 251
nan nan nan nan nan nan nan nan nan nan nan nan nan 208 214 215 211 207 201 198 206 212 212 207 215 224 214 213 216 221 221 223 221 213 210 217 221 228 227 220 220 226 226 226 228 233 229 225 217 222 226 227 234 245 246 240 234 230 226 222 217 215 218 225 224 221 234 245 246 249 242 232 232 233 223 219 238 243 241 239 240 242 242 239 239 242
nan nan nan nan nan nan nan nan nan nan nan nan nan 210 214 215 210 207 211 213 217 216 211 212 215 219 216 210 218 220 219 222 222 219 222 223 226 229 230 221 221 224 224 226 226 227 232 231 232 230 234 238 236 240 244 246 248 249 246 241 234 227 219 213 223 235 221 227 247 246 242 238 237 237 230 222 229 232 237 236 235 242 247 245 241 239
nan nan 220 nan nan nan nan nan nan nan nan nan nan 211 213 216 213 208 208 213 218 214 210 212 214 211 214 217 221 224 226 226 225 224 225 226 228 235 236 235 237 240 233 228 228 234 233 236 234 238 238 233 233 225 227 227 238 248 249 246 243 237 231 228 224 221 231 218 225 241 240 243 244 241 237 231 230 231 230 231 232 234 240 247 252 249
nan nan nan nan nan nan nan nan nan nan 234 218 nan 205 208 212 214 208 209 208 217 219 217 216 215 214 212 214 221 227 228 228 226 223 227 229 231 236 240 242 243 242 238 232 235 239 240 241 245 244 238 232 233 236 230 226 228 234 236 241 245 242 238 234 227 221 218 219 216 234 238 238 240 240 240 234 229 228 227 225 231 237 237 241 246 247
nan nan nan nan nan nan nan nan nan 239 236 220 nan 199 206 217 220 217 212 213 217 219 222 222 218 215 214 213 220 226 230 231 231 227 226 229 233 238 245 246 243 241 237 237 241 244 243 242 240 243 248 243 237 241 240 235 230 227 229 232 239 242 241 241 241 233 226 217 214 227 236 238 240 242 241 239 237 235 231 227 224 229 234 238 235 241
nan nan nan nan nan nan nan nan nan 228 nan nan 211 nan 203 221 224 222 215 214 218 223 227 226 228 224 221 220 225 228 230 232 236 234 230 228 235 244 245 244 240 238 239 239 242 244 244 244 246 249 249 247 242 238 236 233 232 229 228 232 233 237 238 241 238 235 236 233 220 223 228 231 234 237 239 237 236 237 238 236 234 231 227 229 229 232
nan nan nan nan nan nan nan nan nan 223 nan 226 nan 209 216 237 233 230 222 220 223 230 235 234 236 236 231 228 229 229 231 233 232 231 227 225 229 238 242 240 235 231 231 234 238 242 242 240 244 250 252 250 247 243 236 231 233 233 233 233 234 236 239 236 236 234 237 242 228 219 221 227 232 235 237 237 234 235 235 236 233 239 239 237 234 229
nan nan nan nan nan nan nan nan nan nan nan nan 226 230 223 226 232 232 226 222 224 231 235 236 236 239 239 236 231 229 231 233 231 228 229 230 231 234 242 245 242 237 234 231 234 238 243 246 247 246 246 245 247 247 242 234 231 234 234 234 236 233 232 231 231 229 227 228 225 223 221 229 235 237 238 238 237 238 237 237 241 240 240 242 246 249
nan nan nan nan nan nan nan nan nan nan nan nan nan 225 nan nan nan 233 235 227 225 229 234 239 239 239 239 237 236 234 234 235 234 231 231 234 241 241 240 244 nan nan nan nan nan 240 242 244 245 248 249 248 246 245 241 237 237 238 236 235 232 231 229 228 227 226 226 225 223 221 221 225 230 233 238 244 243 243 246 245 238 240 241 235 243 245
nan nan nan nan nan nan nan nan nan nan nan nan 228 233 nan nan 219 234 238 237 229 232 238 245 243 242 243 243 243 243 240 239 239 241 242 240 244 246 242 243 249 250 nan nan nan nan nan 248 249 246 243 239 237 238 239 235 233 233 235 236 235 234 232 230 228 227 229 224 220 224 224 226 230 233 230 234 239 243 247 246 239 240 251 250 242 248
nan nan nan nan nan nan nan nan nan nan nan 242 230 232 254 nan nan nan nan 233 235 237 239 244 243 240 242 248 250 249 244 244 248 250 252 254 253 251 248 246 248 248 244 nan nan nan nan nan 245 245 242 241 nan nan nan nan nan 234 231 231 233 236 236 232 224 217 220 218 218 224 229 230 231 231 235 237 237 237 238 242 244 242 243 243 242 247
nan nan nan nan nan nan nan nan 237 237 nan nan 226 232 nan nan nan nan nan 237 nan 235 243 245 239 234 235 240 245 250 253 255 254 253 253 255 259 258 252 nan nan nan nan nan nan nan nan nan nan nan nan nan nan nan nan nan 237 236 234 230 228 229 229 226 221 217 221 230 236 240 241 244 244 240 238 239 240 240 238 236 241 249 254 255 251 249
nan nan nan nan nan 257 263 258 250 245 236 238 236 228 230 256 nan nan nan 259 248 245 245 253 248 241 241 244 247 256 251 254 256 254 249 248 252 253 nan nan nan nan nan nan nan nan nan nan nan nan nan nan nan nan nan nan nan nan nan 236 235 233 229 224 224 227 231 241 246 245 244 243 246 246 244 243 247 247 247 249 253 257 265 266 260 255
nan nan nan nan nan 272 272 274 269 265 nan nan 245 nan 247 251 nan nan 278 278 273 260 252 262 259 251 250 249 252 252 251 255 255 249 246 243 245 nan nan nan nan nan nan nan nan nan nan nan nan nan nan nan nan nan nan nan nan nan nan nan nan 234 232 237 239 242 245 246 247 248 247 242 242 245 244 241 240 241 241 237 246 265 267 261 265 264
nan nan nan nan nan 260 257 261 252 244 227 247 247 nan nan 262 276 279 273 269 273 269 264 260 263 260 261 259 257 258 256 252 251 250 247 nan nan nan nan nan nan nan nan nan nan nan nan nan nan nan nan nan nan nan nan nan nan nan nan nan nan nan 244 246 248 250 254 255 254 253 250 246 244 244 245 245 242 242 240 239 239 238 247 259 260 260
nan nan nan nan nan 275 nan 267 273 281 255 238 nan 263 238 253 274 269 267 268 262 264 260 260 257 260 263 269 268 262 nan 261 nan nan nan nan nan nan nan nan nan nan nan nan nan nan nan nan nan nan nan nan nan nan nan nan nan nan nan nan nan nan nan 254 256 257 nan 256 256 255 252 250 248 248 248 246 246 244 242 241 239 241 241 239 253 260
nan 273 nan nan nan nan nan 283 274 268 266 246 260 262 257 253 263 269 270 270 268 258 261 264 267 265 271 274 273 nan nan nan nan nan nan nan nan nan nan nan nan nan nan nan nan nan nan nan nan nan nan nan nan nan nan nan nan nan nan nan nan nan nan nan nan nan nan 261 nan nan 256 253 250 248 248 247 245 244 243 242 241 243 241 244 243 252
nan nan nan nan nan nan nan nan nan nan 262 253 248 260 266 259 260 270 274 270 267 273 276 278 276 276 275 278 280 275 nan nan nan nan nan nan nan nan nan nan nan nan nan nan nan nan nan nan nan nan nan nan nan nan nan nan nan nan nan nan nan nan nan nan nan nan nan nan nan nan nan nan 255 250 247 245 246 246 244 244 244 242 241 244 247 244
nan 277 nan nan nan 257 266 259 nan nan nan 267 264 253 255 259 263 264 266 269 276 274 272 275 278 279 281 281 284 284 nan nan nan nan nan nan nan nan nan nan nan nan nan nan nan nan nan nan nan nan nan nan nan nan nan nan nan nan nan nan nan nan nan nan nan nan nan nan nan nan nan nan nan nan nan nan 244 246 246 246 244 245 242 243 246 250
nan nan nan 280 265 nan 289 294 nan 270 nan nan nan 275 270 266 266 271 276 279 276 275 275 279 275 273 276 283 284 286 289 nan nan nan nan nan nan nan nan nan nan nan nan nan nan nan nan nan nan nan nan nan nan nan nan nan nan nan nan nan nan nan nan nan nan nan nan nan nan nan nan nan nan nan nan nan nan nan 244 244 nan nan nan nan nan nan
nan 273 292 280 267 254 249 257 272 257 nan nan nan nan nan 284 278 276 279 278 274 271 270 272 277 281 278 284 279 280 280 285 nan nan nan nan nan nan nan nan nan nan nan nan nan nan nan nan nan nan nan nan nan nan nan nan nan nan nan nan nan nan nan nan nan nan nan nan nan nan nan nan nan nan nan nan nan nan nan nan nan nan nan nan nan nan
nan nan 273 269 nan nan 304 316 nan nan 283 284 nan nan nan nan 281 280 277 278 280 277 275 273 268 273 278 278 281 279 281 280 281 283 nan nan nan nan nan nan nan nan nan nan nan nan nan nan nan nan nan nan nan nan nan nan nan nan nan nan nan nan nan nan nan nan nan nan nan nan nan nan nan nan nan nan nan nan nan nan nan nan nan nan nan nan
nan nan nan nan nan nan nan nan nan nan nan nan nan nan nan nan nan nan 282 287 288 286 284 280 277 270 276 280 280 284 284 286 285 280 281 nan nan nan nan nan nan nan nan nan nan nan nan nan nan nan nan nan nan nan nan nan nan nan nan nan nan nan nan nan nan nan nan nan nan nan nan nan nan nan nan nan nan nan nan nan nan nan nan nan nan nan